This is the latest recevied weather packets stored in our database for station/object N7IGG. If no packets are shown the sender has not sent any weather packets the latest 10 day(s).
| Time | Temp. | Humidity | Pressure | Rain* | Wind** | Luminosity | Snow |
|---|---|---|---|---|---|---|---|
| 1777914603 | 14.44° C | 85% | 1011.2 hPa | 0 mm | - | 51 W/m² | - |
| 1777914299 | 14.44° C | 86% | 1011.3 hPa | 0 mm | - | 242 W/m² | - |
| 1777913996 | 13.89° C | 87% | 1011.3 hPa | 0 mm | - | 61 W/m² | - |
| 1777913692 | 13.33° C | 87% | 1011 hPa | 0 mm | - | 54 W/m² | - |
| 1777913390 | 13.33° C | 87% | 1011.1 hPa | 0 mm | - | 64 W/m² | - |
| 1777913086 | 12.78° C | 88% | 1011.2 hPa | 0 mm | - | 50 W/m² | - |
| 1777912783 | 12.78° C | 87% | 1011.2 hPa | 0 mm | - | 50 W/m² | - |
| 1777912478 | 12.78° C | 88% | 1011.1 hPa | 0 mm | - | 49 W/m² | - |
| 1777912175 | 12.78° C | 87% | 1011.2 hPa | 0 mm | - | 48 W/m² | - |
| 1777911871 | 13.33° C | 88% | 1011.3 hPa | 0 mm | - | 44 W/m² | - |
| 1777911568 | 12.78° C | 88% | 1011.1 hPa | 0 mm | - | 45 W/m² | - |
| 1777911264 | 12.78° C | 88% | 1011 hPa | 0 mm | - | 43 W/m² | - |
| 1777910961 | 12.22° C | 88% | 1011.1 hPa | 0 mm | - | 43 W/m² | - |
| 1777910659 | 12.78° C | 88% | 1011 hPa | 0 mm | - | 43 W/m² | - |
| 1777910355 | 12.78° C | 88% | 1011.2 hPa | 0 mm | - | 42 W/m² | - |
| 1777910052 | 12.78° C | 89% | 1011 hPa | 0 mm | - | 91 W/m² | - |
| 1777909749 | 12.78° C | 89% | 1011 hPa | 0 mm | - | 57 W/m² | - |
| 1777909446 | 12.22° C | 89% | 1011.1 hPa | 0 mm | - | 78 W/m² | - |
| 1777909144 | 12.22° C | 89% | 1010.8 hPa | 0 mm | - | 43 W/m² | - |
| 1777908842 | 13.33° C | 90% | 1010.7 hPa | 0 mm | - | 42 W/m² | - |
| 1777908538 | 12.78° C | 90% | 1010.9 hPa | 0 mm | - | 38 W/m² | - |
| 1777908235 | 12.22° C | 90% | 1011 hPa | 0 mm | - | 37 W/m² | - |
| 1777907932 | 11.67° C | 90% | 1010.8 hPa | 0 mm | - | 37 W/m² | - |
| 1777907627 | 11.67° C | 90% | 1010.7 hPa | 0 mm | - | 33 W/m² | - |
| 1777907323 | 11.67° C | 90% | 1010.6 hPa | 0 mm | - | 32 W/m² | - |
* Rain latest hour (hover to see other rain measurements)
** Current wind speed in m/s (hover to see current wind gust speed)